Regional Weather Roundup
Issued by NWS Charleston, SC

Current Version | Previous Version | Graphics & Text | Print | Product List | Glossary On
Versions: 1 2 3 4 5 6 7 8 9 10 11 12 13 14 15 16 17 18 19 20 21 22 23 24 25 26 27 28 29 30 31 32 33 34 35 36 37 38 39 40 41 42 43 44 45 46 47 48 49 50
000
ASUS42 KCHS 220010
RWRCHS
REGIONAL WEATHER ROUNDUP
NATIONAL WEATHER SERVICE CHARLESTON SC
700 PM EST FRI NOV 21 2014

NOTE: "FAIR" INDICATES FEW OR NO CLOUDS BELOW 12,000 FEET WITH NO
SIGNIFICANT WEATHER AND/OR OBSTRUCTIONS TO VISIBILITY.

NOT ALL STATIONS ARE QUALITY CONTROLLED BY THE NATIONAL
WEATHER SERVICE. USE DATA WITH CAUTION...ESPECIALLY
DEWPOINT OBSERVATIONS.

SCZ027-030-031-034>040-042>050-220100-
...SOUTH CAROLINA...

CITY           SKY/WX    TMP DP  RH WIND       PRES   REMARKS
N CHARLESTON   CLEAR     51  39  63 E9        30.43R
6HR MIN TEMP:  51; 6HR MAX TEMP:  68;

WATERFRONT PRK   N/A     55 N/A N/A NE10        N/A
FORT JOHNSON   NOT AVBL
JOHNS ISLAND   CLEAR     52  43  71 CALM      30.43R
PINOPOLIS        N/A     57  37  47 SE5G12    30.34R
MONCKS CORNER  FAIR      52  43  71 E5        30.43R
SUMMERVILLE    FAIR      50  41  71 E3        30.44R
BEAUFORT MCAS  CLEAR     55  45  68 E5        30.41R
6HR MIN TEMP:  54; 6HR MAX TEMP:  70;

BEAUFORT ARPT  FAIR      52  46  82 NE5       30.40R
HILTON HEAD IS CLEAR     57  48  72 NE6       30.41R
GEORGETOWN     NOT AVBL
WALTERBORO     CLEAR     50  30  46 E5        30.42R
ORANGEBURG     CLEAR     52  28  39 E6        30.42R
6HR MIN TEMP:  50; 6HR MAX TEMP:  66;

BARNWELL       FAIR      52  30  43 CALM      30.42R
AIKEN          FAIR      46  32  57 E6        30.43S
MANNING        NOT AVBL
KINGSTREE      NOT AVBL
COLUMBIA       CLEAR     54  29  38 NE6       30.43R
6HR MIN TEMP:  51; 6HR MAX TEMP:  65;

SUMTER         CLEAR     44  25  46 NE5       30.43R
6HR MIN TEMP:  44; 6HR MAX TEMP:  63;

FLORENCE       CLEAR     44  23  43 E8        30.46R
6HR MIN TEMP:  43; 6HR MAX TEMP:  62;

MYRTLE BEACH   CLEAR     48  23  37 NE10      30.46R
N MYRTLE BEACH CLEAR     44  27  51 NE5       30.47R
6HR MIN TEMP:  42; 6HR MAX TEMP:  61;


$$

GAZ063-065-086>088-099>101-113>116-118-119-134-136>141-150-220100-
...GEORGIA...

CITY           SKY/WX    TMP DP  RH WIND       PRES   REMARKS
SAVANNAH ARPT  CLEAR     55  44  66 E5        30.40R
6HR MIN TEMP:  55; 6HR MAX TEMP:  72;

HUNTER AAF     CLEAR     53  44  73 E5        30.37R
6HR MIN TEMP:  52; 6HR MAX TEMP:  69;

FORT STEWART   CLEAR     53  38  57 CALM      30.37R
6HR MIN TEMP:  52; 6HR MAX TEMP:  68;

STATESBORO     NOT AVBL
SYLVANIA       CLEAR     50  41  70 NE3       30.39R
CLAXTON        FAIR      48  37  66 CALM      30.38R
THOMSON        CLEAR     47  39  75 CALM      30.44R
AUGUSTA-BUSH   CLEAR     45  31  58 CALM      30.40R
6HR MIN TEMP:  45; 6HR MAX TEMP:  67;

AUGUSTA-DANIEL CLEAR     57  29  34 E8        30.40R
SWAINSBORO     FAIR      55  36  47 E3        30.39R
VIDALIA        CLEAR     52  37  58 CALM      30.37R
ALMA           CLEAR     46  33  60 CALM      30.35R
6HR MIN TEMP:  46; 6HR MAX TEMP:  69;

WAYCROSS       CLEAR     59  42  53 SE8       30.36R
JESUP          FAIR      55  39  54 CALM      30.38R
BRUNSWICK        N/A     52  45  76 NE3       30.39R
SAINT SIMONS   CLEAR     55  47  74 NE7       30.38R
6HR MIN TEMP:  54; 6HR MAX TEMP:  64;


$$

SCZ027-028-034-036>038-045-046-048>050-GAZ119-141-220100-
...LAKE AND SUPPLEMENTAL COASTAL OBSERVATIONS...

STATION/POSITION TIME  TEMP    WIND        PRES    WAVE   SWELL
                       AIR SEA DIR/SP/G            HT/PER HT/PER/DIR
                 (UTC) (F)     (DEG/KT/KT) (MB)    (FT/S) (FT/S/D)
UPR LAKE MARION  NOT AVBL
WINYAH BAY       2300   54      70/  6     1030.0S
LAKE MURRAY      2300   56      70/  3/  6 1029.1R
ACE BASIN NERRS  2300   54      90/  2     1029.0S
FORT PULASKI     0000   59      80/ 13/ 14 1029.2S
SAPELO ISLAND    NOT AVBL

$$

ANZ835-935-AMZ111-154-330-350-352-354-374-450-454-472-220100-
...C-MAN AND BUOY OBSERVATIONS...

STATION/POSITION TIME  TEMP    WIND        PRES    WAVE   SWELL
                       AIR SEA DIR/SP/G            HT/PER HT/PER/DIR
                 (UTC) (F)     (DEG/KT/KT) (MB)    (FT/S) (FT/S/D)
FOLLY BEACH CMAN 2300   56      60/ 15/ 17 1030.2R
BUOY 41004       0000   61 75   50/ 16/ 21 1029.5R   4/ 5   2/ 8
BUOY 41008       0000   63 64   60/ 16/ 19 1028.1F   3/ 8   2/140/ 8
5E ST. MARYS GA  0000      63                N/A     3/ 4
FRYING PAN BUOY  0000   55 64   30/ 16/ 19 1031.8R   3/ 5   2/160/ 8
BUOY 41025       0000   45     350/ 16/ 21 1032.9R   5/ 6   2/ 10/ 8
CAPE LOOKOUT NC  2300   44      20/ 14/ 16 1032.1R
BUOY 41002       NOT AVBL
BUOY 41010       0000   73 78   50/ 19/ 23 1025.0R   6/ 8   3/ 80/ 8
BUOY 41012       NOT AVBL
ST AUGUSTINE FL  0000   65      20/ 14/ 16 1027.2S
CAPERS NEARSHORE 2300   57      60/ 16/ 17   N/A
FRIPP NEARSHORE  NOT AVBL


$$


USA.gov is the U.S. government's official web portal to all federal, state and local government web resources and services.